620  
ASUS46 KPDT 240925  
RWRPDT  
PENDLETON REGIONAL WEATHER ROUNDUP  
NATIONAL WEATHER SERVICE PENDLETON OREGON  
200 AM PDT MON JUN 24 2024  
 
NOTE: FAIR INDICATES FEW OR NO CLOUDS BELOW 12,000 FEET WITH NO  
SIGNIFICANT WEATHER AND/OR S TO VISIBILITY
.  
 
# INDICATES UNOFFICIAL STATION AND DATA  
 
WAZ520-241010-  
EAST SLOPES OF WASHINGTON CASCADES  
 
CITY SKY/WX TMP DP RH WIND PRES REMARKS
 
#BULLFROG N/A 51 45 80 W9 N/A  
#CLE ELUM HS N/A 51 44 77 W3 29.94F  
#ELK HTS DOT N/A 51 43 74 W6 N/A  
#GLENWOOD N/A 41 37 86 CALM 29.99R  
#NILE N/A 52 43 71 SW2 29.35S  
#TROUT LAKE 1NE N/A 50 43 77 W7 29.97F  
#TROUT LAKE 1E N/A 45 41 86 CALM 30.04S  

 
 
WAZ521-241010-  
SIMCOE HIGHLANDS  
 
CITY SKY/WX TMP DP RH WIND PRES REMARKS
 
#SATUS PASS DOT N/A 42 39 89 W7 N/A  
#CENTERVILLE 1SWN/A 53 43 69 SW3 29.92S  
#LYLE 6NE N/A 54 46 74 CALM 29.99S  
#PITT 4SE N/A 49 43 80 W2 29.99S  

 
 
WAZ026-241010-  
KITTITAS VALLEY  
 
CITY SKY/WX TMP DP RH WIND PRES REMARKS
 
ELLENSBURG AP FAIR 54 44 69 NW6 29.99S  
#ELLENSBURG CWU N/A 53 45 74 CALM 29.90R  
#ELLENSBURG 1E N/A 54 46 74 W7 29.97S  
#KITTITAS 3S N/A 52 44 74 N7 29.93S  
#MANASTASH RDG N/A 49 42 77 W3 N/A  
#ROCKY CYN DOT N/A 53 46 77 W13 N/A  
#RYEGRASS DOT N/A 50 44 80 SE20 N/A  
#THORP 6N N/A 52 45 77 SW2 29.89R  

 
 
WAZ027-241010-  
YAKIMA VALLEY  
 
CITY SKY/WX TMP DP RH WIND PRES REMARKS
 
SUNNYSIDE AP FAIR 49 45 86 CALM 30.00R  
YAKIMA AIRPORT FAIR 55 41 59 SW3 29.99R  
#MABTON N/A 56 42 59 CALM 30.00S  
#NACHES 2SW N/A 54 41 61 W7 29.98F  
#OUTLOOK DOT N/A 60 41 49 SW5 N/A  
#PARKER DOT N/A 58 41 53 NW2 N/A  
#TERRACE HTS N/A 57 42 57 N5 29.91R  
#I82 S UMTANUM RN/A 57 39 51 W17G25 N/A  
#UNION GAP DOT N/A 57 43 59 N2 N/A  
#ZILLAH DOT N/A 58 43 57 W3 N/A  

 
 
WAZ028-241010-  
LOWER COLUMBIA BASIN...WASHINGTON  
 
CITY SKY/WX TMP DP RH WIND PRES REMARKS
 
PASCO FAIR 58 45 62 CALM 29.99R  
PROSSER AWOS N/A 54 45 71 CALM 30.02R  
RICHLAND AWOS FAIR 59 44 57 S6 30.00R  
#BASIN CITY 5SW N/A 58 45 62 W7 29.97R  
#BENTON CITY N/A 51 42 71 CALM 29.86R  
#CONNELL 5N N/A 54 43 66 W1 29.93R  
#KENNEWICK 3S N/A 55 41 59 CALM 30.01R  
#PROSSER DOT N/A 52 44 74 E1 N/A  
#SAGEMOOR 2W N/A 54 45 71 CALM 30.00R  

 
 
WAZ029-241010-  
FOOTHILLS OF THE BLUES...WASHINGTON  
 
CITY SKY/WX TMP DP RH WIND PRES REMARKS
 
WALLA WALLA AP FAIR 57 44 62 S9 30.01R  
#CLYDE 6NW N/A 51 40 66 CALM 30.01R  
#DELANEY DOT N/A 57 42 57 SW2 N/A  
#LOWDEN 2SE N/A 55 46 72 CALM 29.87R  
#WALLA WALLA 5E N/A 56 46 69 S7 N/A  
#WHITMAN MISSIONN/A 55 46 72 CALM 30.06R  

 
 
WAZ030-241010-  
BLUE MOUNTAINS...WASHINGTON  
 
CITY SKY/WX TMP DP RH WIND PRES REMARKS
 

 
 
ORZ009-041-WAZ024-241010-  
COLUMBIA RIVER GORGE  
 
CITY SKY/WX TMP DP RH WIND PRES REMARKS
 
HOOD RIVER AP CLOUDY 57 46 67 CALM 30.04S  
THE DALLES AP FAIR 61 47 60 NW14 30.00F  
#LYLE N/A 61 49 65 W7 30.02S  
#MARYHILL N/A 59 44 57 W13G24 N/A  
#RUFUS DOT N/A 64 43 46 W16G25 N/A  
 

 
 
ORZ510-241010-  
NORTH CENTRAL OREGON  
 
CITY SKY/WX TMP DP RH WIND PRES REMARKS
 
#ANTELOPE N/A 45 39 79 CALM 29.81R  
#COW CYN RST AREN/A 50 44 80 S10 N/A  
#DUFUR N/A 42 39 89 CALM 29.97S  
#GRASS VALLEY 1SN/A 49 43 80 CALM 29.93S  
#KENT DOT N/A 46 41 83 E3 N/A  
#SHANIKO 5WSW N/A 49 40 71 N6 N/A  
#WASCO DOT N/A 51 44 77 S8 N/A  
#WASCO 5NE N/A 54 45 71 N2 29.95R  

 
 
ORZ511-241010-  
CENTRAL OREGON  
 
CITY SKY/WX TMP DP RH WIND PRES REMARKS
 
BEND AIRPORT FAIR 50 39 66 W3 30.04R  
MADRAS AIRPORT FAIR 46 41 83 CALM 30.06R  
PRINEVILLE AP FAIR 45 36 70 CALM 30.05R  
REDMOND AIRPORT FAIR 52 39 61 W3 30.03S  
#ASHWOOD SCHOOL N/A 48 39 71 CALM 30.00R  
#CULVER N/A 50 41 71 CALM 28.97S  
#PRINEVILLE N/A 46 38 73 CALM 29.99R  
 

 
 
 
ORZ509-241010-  
EAST SLOPES OF OREGON CASCADES  
 
CITY SKY/WX TMP DP RH WIND PRES REMARKS
 
SISTERS AWOS N/A 48 39 71 CALM 30.01S  
SUNRIVER AWOS FAIR 39 37 92 CALM 30.11S  
#BLUE BOX PASS N/A 44 N/A N/A CALM N/A  
#CAMP SHERMAN N/A 49 39 68 CALM 29.95R  
#LA PINE DOT N/A 43 36 76 CALM N/A  
#LAVA BUTTE DOT N/A 43 35 73 CALM N/A  
#SISTERS ODOT N/A 39 29 67 CALM N/A  
#WANOGA BUTTE D N/A 47 30 51 SW1 N/A  
 

 
 
ORZ044-241010-  
LOWER COLUMBIA BASIN...OREGON  
 
CITY SKY/WX TMP DP RH WIND PRES REMARKS
 
HERMISTON FAIR 57 44 62 SW9 30.00R  
#BOARDMAN SCHOOLN/A 57 45 64 CALM 29.94R  
#ECHO 8SW N/A 57 46 67 SW7 30.01R  
#I-84 EX 198 DOTN/A 57 44 62 E9 N/A  
#UMATILLA N/A 57 45 64 CALM 29.90R  

 
 
ORZ507-241010-  
NORTHERN FOOTHILLS OF THE BLUES  
 
CITY SKY/WX TMP DP RH WIND PRES REMARKS
 
PENDLETON AIRPT FAIR 58 42 55 SW8 30.02R  
#ATHENA N/A 52 42 69 SE1 29.97S  
#CAYUSE N/A 55 42 61 CALM 29.96R  
#HELIX 3N N/A 48 41 77 CALM 30.04R  
#M-FREEWATER 5SEN/A 57 44 62 CALM 30.00S  
#PDT SUNRIDGE N/A 55 42 61 CALM 29.99R  
#PENDLETON 6SE N/A 51 42 71 CALM 29.92R  
#TUTUILLA N/A 49 39 68 CALM 30.07R  
#UMAPINE 2E N/A 56 46 69 CALM 29.96R  
 

 
 
ORZ508-241010-  
SOUTHERN FOOTHILLS OF THE BLUES  
 
CITY SKY/WX TMP DP RH WIND PRES REMARKS
 
#AJAX N/A 53 44 71 W1 30.03S  
#HEPPNER EOC N/A 50 42 74 CALM 29.91S  
#HEPPNER 4NE N/A 49 42 77 W3 29.97S  
#RUGGS 2SW N/A 47 40 76 SW5 29.98S  
 

 
 
ORZ502-503-241010-  
BLUE MOUNTAINS  
 
CITY SKY/WX TMP DP RH WIND PRES REMARKS
 
MEACHAM FAIR 42 36 79 CALM 30.06  
#BATTLE MTN DOT N/A 44 37 76 CALM N/A  
#HARDMAN 10S N/A 44 39 82 CALM 30.00R  
#LADD CYN SMT N/A 53 37 54 N7 N/A  
#LADD CREEK ODOTN/A 57 39 51 NE5 N/A  
#N POWDER DOT N/A 55 35 47 N14 N/A  
#TOLLGATE N/A 42 37 82 CALM 30.08F  
#WESTON 4E N/A 49 41 74 CALM 29.91R  

 
 
ORZ505-241010-  
JOHN DAY BASIN  
 
CITY SKY/WX TMP DP RH WIND PRES REMARKS
 
JOHN DAY FAIR 53 39 59 SW5 30.03S  
#MITCHELL 8NW N/A 52 40 63 CALM 29.88R  
#MT. VERNON 5SE N/A 53 40 61 CALM 30.05R  

 
 
ORZ506-241010-  
OCHOCO AND JOHN DAY HIGHLANDS  
 
CITY SKY/WX TMP DP RH WIND PRES REMARKS
 
#BUCK CREEK DOT N/A 53 26 35 VRB2 N/A  
#HORSE RIDGE DO N/A 41 28 59 CALM N/A  
#KEYES SMT DOT N/A 46 38 73 CALM N/A  
#PAULINA ODOT N/A 52 37 56 CALM N/A  
#PRAIRIE CITY N/A 48 43 83 CALM 29.95R  
#SENECA 9NW N/A 44 38 79 CALM 29.80S  

 
 
ORZ049-241010-  
GRANDE RONDE VALLEY  
 
CITY SKY/WX TMP DP RH WIND PRES REMARKS
 
LA GRANDE FAIR 56 37 49 W14 30.02S  
#COVE SCHOOL N/A 51 42 71 CALM 30.03R  
#ELGIN 1E N/A 58 40 51 SW6 N/A  
#IMBLER SCHOOL N/A 55 38 53 CALM 29.97R  
#ISLAND CITY 4N N/A 49 45 86 CALM 30.08S  
#LADD CYN DOT N/A 56 40 55 CALM N/A  
#UNION 1S N/A 57 40 53 CALM 29.89R  

 
 
ORZ050-241010-  
WALLOWA COUNTY  
 
CITY SKY/WX TMP DP RH WIND PRES REMARKS
 
JOSEPH AIRPORT FAIR 47 40 76 CALM 30.05S  
#IMNAHA SCHOOL N/A 64 38 38 CALM 29.87R  
#JOSEPH 3N N/A 47 41 79 CALM 30.03F  
#LOSTINE 3SE N/A 47 40 76 CALM 30.11R  
#MT HOWARD 8000 N/A 50 23 34 CALM 30.14S  
#WALLOWA LAKE N/A 49 44 83 CALM 30.10S  
#WALLOWA SCHOOL N/A 53 39 59 CALM 29.87R  
 

 
 
CLICK HERE TO GO TO PREVIOUS BULLETINS.

The Nexlab OR Page
The Nexlab WA Page Main Text Page